SWR2XG LEMG-LSGG

Flight info

Callsign SWR2XG
Flight time 1h 55m
Altitude 36000
Route BLN L27 YAKXU N871 TOPTU DCT TOU DCT GAI/N0424F300 DCT MEN DCT NINUN DCT LATAM DCT ETREK DCT LUXAN G53 LTP Z16 BELUS
Aircraft A21N/M-SDE2E3FGHIRWXY/LB1

Departure

Time 2026-05-04 12:54
Airport Málaga-Costa del Sol Airport (LEMG)

Arrival

Time 2026-05-04 14:49
Airport Geneva International Airport (LSGG)
Time Latitude Longitude Altitude Speed Heading
2026-05-04 12:26 36.67800 -4.49657 47 ft 0 kts 131°
2026-05-04 12:34 36.67803 -4.49662 46 ft 4 kts 130°
2026-05-04 12:34 36.67820 -4.49689 45 ft 4 kts 119°
2026-05-04 12:34 36.67829 -4.49719 47 ft 4 kts 95°
2026-05-04 12:35 36.67825 -4.49745 47 ft 3 kts 43°
2026-05-04 12:35 36.67823 -4.49747 41 ft 0 kts 41°
2026-05-04 12:41 36.67823 -4.49748 75 ft 0 kts 41°
2026-05-04 12:43 36.67831 -4.49738 46 ft 4 kts 40°
2026-05-04 12:43 36.67868 -4.49727 47 ft 7 kts
2026-05-04 12:43 36.67920 -4.49715 46 ft 9 kts 29°
2026-05-04 12:44 36.67972 -4.49660 47 ft 11 kts 41°
2026-05-04 12:44 36.68036 -4.49589 47 ft 13 kts 41°
2026-05-04 12:44 36.68109 -4.49507 47 ft 15 kts 41°
2026-05-04 12:44 36.68193 -4.49414 47 ft 17 kts 41°
2026-05-04 12:45 36.68277 -4.49318 46 ft 14 kts 53°
2026-05-04 12:45 36.68254 -4.49197 46 ft 16 kts 116°
2026-05-04 12:45 36.68201 -4.49066 45 ft 18 kts 117°
2026-05-04 12:45 36.68142 -4.48924 45 ft 19 kts 117°
2026-05-04 12:46 36.68077 -4.48769 43 ft 21 kts 117°
2026-05-04 12:46 36.68006 -4.48605 45 ft 18 kts 118°
2026-05-04 12:46 36.67963 -4.48506 45 ft 13 kts 118°
2026-05-04 12:46 36.67917 -4.48397 44 ft 15 kts 117°
2026-05-04 12:47 36.67875 -4.48299 44 ft 13 kts 118°
2026-05-04 12:47 36.67832 -4.48194 43 ft 15 kts 116°
2026-05-04 12:47 36.67784 -4.48074 41 ft 16 kts 116°
2026-05-04 12:47 36.67733 -4.47946 37 ft 10 kts 117°
2026-05-04 12:48 36.67698 -4.47863 38 ft 12 kts 116°
2026-05-04 12:48 36.67711 -4.47783 36 ft 9 kts 64°
2026-05-04 12:48 36.67754 -4.47708 38 ft 12 kts 44°
2026-05-04 12:48 36.67797 -4.47694 39 ft 5 kts 322°
2026-05-04 12:49 36.67817 -4.47716 39 ft 7 kts 312°
2026-05-04 12:49 36.67854 -4.47809 42 ft 11 kts 296°
2026-05-04 12:49 36.67879 -4.47870 43 ft 13 kts 297°
2026-05-04 12:49 36.67924 -4.47978 43 ft 15 kts 299°
2026-05-04 12:50 36.67962 -4.48063 42 ft 0 kts 297°
2026-05-04 12:53 36.67970 -4.48082 43 ft 13 kts 297°
2026-05-04 12:53 36.68113 -4.48425 44 ft 84 kts 297°
2026-05-04 12:53 36.68499 -4.49337 53 ft 149 kts 298°
2026-05-04 12:53 36.69013 -4.50555 466 ft 160 kts 296°
2026-05-04 12:54 36.69507 -4.51791 1156 ft 158 kts 291°
2026-05-04 12:54 36.70044 -4.52958 1928 ft 158 kts 304°
2026-05-04 12:54 36.71029 -4.53756 2494 ft 179 kts 327°
2026-05-04 12:54 36.72026 -4.54769 3083 ft 192 kts 313°
2026-05-04 12:55 36.72971 -4.56036 3729 ft 205 kts 312°
2026-05-04 12:55 36.73930 -4.57348 4586 ft 209 kts 312°
2026-05-04 12:55 36.74962 -4.58733 5242 ft 224 kts 316°
2026-05-04 12:55 36.76293 -4.59806 6033 ft 233 kts 333°
2026-05-04 12:56 36.77907 -4.60386 6510 ft 259 kts 355°
2026-05-04 12:56 36.79730 -4.59880 7065 ft 279 kts 25°
2026-05-04 12:56 36.81404 -4.58566 7855 ft 288 kts 32°
2026-05-04 12:56 36.83075 -4.57126 8664 ft 295 kts 31°
2026-05-04 12:57 36.84775 -4.55694 9388 ft 304 kts 30°
2026-05-04 12:57 36.86562 -4.54213 9839 ft 309 kts 29°
2026-05-04 12:57 36.88420 -4.52694 10030 ft 331 kts 29°
2026-05-04 12:57 36.90422 -4.51069 10296 ft 354 kts 30°
2026-05-04 12:58 36.92541 -4.49351 10830 ft 367 kts 30°
2026-05-04 12:58 36.94674 -4.47617 11562 ft 373 kts 30°
2026-05-04 12:58 36.96872 -4.45833 12322 ft 378 kts 30°
2026-05-04 12:58 36.99097 -4.44028 13074 ft 383 kts 30°
2026-05-04 12:59 37.01329 -4.42221 13814 ft 388 kts 30°
2026-05-04 12:59 37.03622 -4.40365 14487 ft 394 kts 30°
2026-05-04 12:59 37.05939 -4.38486 15165 ft 399 kts 30°
2026-05-04 12:59 37.08282 -4.36580 15851 ft 402 kts 30°
2026-05-04 13:00 37.10617 -4.34673 16537 ft 407 kts 29°
2026-05-04 13:00 37.13010 -4.32719 17208 ft 412 kts 29°
2026-05-04 13:00 37.15431 -4.30745 17871 ft 417 kts 29°
2026-05-04 13:00 37.17885 -4.28740 18518 ft 422 kts 29°
2026-05-04 13:01 37.20359 -4.26721 19078 ft 426 kts 29°
2026-05-04 13:01 37.22860 -4.24683 19631 ft 431 kts 29°
2026-05-04 13:01 37.25355 -4.22653 20198 ft 435 kts 29°
2026-05-04 13:01 37.27926 -4.20552 20774 ft 439 kts 29°
2026-05-04 13:02 37.30468 -4.18473 21332 ft 443 kts 29°
2026-05-04 13:02 37.33065 -4.16344 21868 ft 447 kts 29°
2026-05-04 13:02 37.35428 -4.14401 22353 ft 451 kts 29°
2026-05-04 13:03 37.37155 -4.12985 22700 ft 454 kts 29°
2026-05-04 13:03 37.39779 -4.10832 23204 ft 458 kts 29°
2026-05-04 13:03 37.42465 -4.08623 23699 ft 463 kts 28°
2026-05-04 13:03 37.45172 -4.06398 24111 ft 467 kts 28°
2026-05-04 13:04 37.47899 -4.04143 24525 ft 471 kts 28°
2026-05-04 13:04 37.50656 -4.01868 24959 ft 474 kts 28°
2026-05-04 13:04 37.53435 -3.99581 25392 ft 477 kts 28°
2026-05-04 13:04 37.56189 -3.97311 25809 ft 480 kts 28°
2026-05-04 13:05 37.59000 -3.94981 26230 ft 484 kts 28°
2026-05-04 13:05 37.61838 -3.92635 26677 ft 487 kts 28°
2026-05-04 13:05 37.64648 -3.90302 27071 ft 490 kts 28°
2026-05-04 13:05 37.67519 -3.87923 27509 ft 493 kts 28°
2026-05-04 13:06 37.70389 -3.85538 27958 ft 495 kts 28°
2026-05-04 13:06 37.73289 -3.83129 28341 ft 498 kts 28°
2026-05-04 13:06 37.76172 -3.80740 28629 ft 501 kts 28°
2026-05-04 13:06 37.79102 -3.78304 28953 ft 504 kts 28°
2026-05-04 13:07 37.82056 -3.75872 29288 ft 506 kts 26°
2026-05-04 13:07 37.85166 -3.73971 29644 ft 497 kts 13°
2026-05-04 13:07 37.88452 -3.72651 30094 ft 494 kts 10°
2026-05-04 13:07 37.91760 -3.71415 30503 ft 493 kts
2026-05-04 13:08 37.95058 -3.70192 30863 ft 493 kts
2026-05-04 13:08 37.98304 -3.68963 31238 ft 492 kts 10°
2026-05-04 13:08 38.01584 -3.67708 31571 ft 492 kts 10°
2026-05-04 13:08 38.04880 -3.66442 31912 ft 492 kts 10°
2026-05-04 13:09 38.08167 -3.65177 32252 ft 492 kts 10°
2026-05-04 13:09 38.11413 -3.63932 32594 ft 492 kts 10°
2026-05-04 13:09 38.14689 -3.62656 32962 ft 493 kts 12°
2026-05-04 13:09 38.17890 -3.60984 33271 ft 498 kts 18°
2026-05-04 13:10 38.21060 -3.59156 33612 ft 498 kts 18°
2026-05-04 13:10 38.24223 -3.57331 33917 ft 497 kts 18°
2026-05-04 13:10 38.27344 -3.55539 34168 ft 497 kts 18°
2026-05-04 13:10 38.30503 -3.53723 34418 ft 497 kts 18°
2026-05-04 13:11 38.33663 -3.51901 34616 ft 497 kts 18°
2026-05-04 13:11 38.36822 -3.50072 34423 ft 496 kts 18°
2026-05-04 13:11 38.39934 -3.48274 34171 ft 496 kts 18°
2026-05-04 13:12 38.46239 -3.44633 34152 ft 498 kts 18°
2026-05-04 13:12 38.52563 -3.40971 34316 ft 499 kts 18°
2026-05-04 13:13 38.58885 -3.37272 34371 ft 498 kts 18°
2026-05-04 13:13 38.65162 -3.33624 34546 ft 498 kts 18°
2026-05-04 13:13 38.68322 -3.31775 34650 ft 498 kts 18°
2026-05-04 13:14 38.71478 -3.29931 34752 ft 498 kts 18°
2026-05-04 13:14 38.74637 -3.28087 34884 ft 497 kts 18°
2026-05-04 13:14 38.77750 -3.26274 34996 ft 497 kts 18°
2026-05-04 13:14 38.80897 -3.24430 35103 ft 497 kts 18°
2026-05-04 13:15 38.84051 -3.22582 35238 ft 497 kts 19°
2026-05-04 13:15 38.87201 -3.20733 35394 ft 496 kts 19°
2026-05-04 13:15 38.90346 -3.18886 35528 ft 496 kts 19°
2026-05-04 13:15 38.93442 -3.17066 35649 ft 495 kts 19°
2026-05-04 13:16 38.96595 -3.15224 35774 ft 495 kts 18°
2026-05-04 13:16 38.99731 -3.13386 35897 ft 495 kts 19°
2026-05-04 13:16 39.02880 -3.11539 36008 ft 497 kts 19°
2026-05-04 13:17 39.09202 -3.07811 36021 ft 507 kts 19°
2026-05-04 13:17 39.15664 -3.03988 35976 ft 513 kts 19°
2026-05-04 13:18 39.22139 -3.00154 35977 ft 514 kts 19°
2026-05-04 13:18 39.28652 -2.96285 35972 ft 514 kts 19°
2026-05-04 13:19 39.35156 -2.92427 35994 ft 515 kts 19°
2026-05-04 13:19 39.41629 -2.88555 35980 ft 515 kts 20°
2026-05-04 13:20 39.48106 -2.84688 35977 ft 514 kts 19°
2026-05-04 13:20 39.54629 -2.80804 36003 ft 514 kts 19°
2026-05-04 13:21 39.61139 -2.76898 35985 ft 515 kts 20°
2026-05-04 13:21 39.67608 -2.72996 35991 ft 515 kts 20°
2026-05-04 13:22 39.74128 -2.69069 35995 ft 515 kts 19°
2026-05-04 13:22 39.80614 -2.65148 36009 ft 517 kts 20°
2026-05-04 13:23 39.87179 -2.61189 36000 ft 517 kts 20°
2026-05-04 13:23 39.93687 -2.57245 35997 ft 517 kts 20°
2026-05-04 13:24 40.00223 -2.53290 35996 ft 518 kts 20°
2026-05-04 13:24 40.06725 -2.49339 35998 ft 517 kts 20°
2026-05-04 13:25 40.16491 -2.43371 35986 ft 517 kts 20°
2026-05-04 13:25 40.23021 -2.39371 36023 ft 517 kts 20°
2026-05-04 13:26 40.29499 -2.35407 35987 ft 515 kts 21°
2026-05-04 13:26 40.36019 -2.31387 35980 ft 516 kts 21°
2026-05-04 13:27 40.42486 -2.27407 35969 ft 518 kts 21°
2026-05-04 13:27 40.49044 -2.23376 35986 ft 519 kts 21°
2026-05-04 13:28 40.55554 -2.19352 35975 ft 518 kts 21°
2026-05-04 13:28 40.62081 -2.15303 35978 ft 518 kts 21°
2026-05-04 13:29 40.68620 -2.11244 35975 ft 518 kts 21°
2026-05-04 13:29 40.75112 -2.07186 35971 ft 518 kts 21°
2026-05-04 13:30 40.81644 -2.03115 35979 ft 519 kts 21°
2026-05-04 13:30 40.88146 -1.99052 35970 ft 518 kts 21°
2026-05-04 13:31 40.94684 -1.94970 35971 ft 517 kts 21°
2026-05-04 13:31 41.01156 -1.90910 35936 ft 517 kts 22°
2026-05-04 13:32 41.07692 -1.86785 35941 ft 521 kts 21°
2026-05-04 13:32 41.14215 -1.82692 35953 ft 520 kts 22°
2026-05-04 13:33 41.20751 -1.78553 35940 ft 519 kts 22°
2026-05-04 13:33 41.27251 -1.74427 35931 ft 519 kts 22°
2026-05-04 13:34 41.33803 -1.70274 35961 ft 519 kts 22°
2026-05-04 13:34 41.40260 -1.66158 35931 ft 516 kts 22°
2026-05-04 13:35 41.49975 -1.59980 35926 ft 516 kts 23°
2026-05-04 13:36 41.56458 -1.55825 35937 ft 516 kts 23°
2026-05-04 13:36 41.62939 -1.51674 35900 ft 516 kts 23°
2026-05-04 13:37 41.69401 -1.47513 35919 ft 518 kts 23°
2026-05-04 13:37 41.75916 -1.43300 35920 ft 518 kts 23°
2026-05-04 13:38 41.82371 -1.39143 35925 ft 515 kts 23°
2026-05-04 13:38 41.88839 -1.34966 35920 ft 515 kts 23°
2026-05-04 13:39 41.95222 -1.30641 35917 ft 518 kts 32°
2026-05-04 13:39 41.97106 -1.28658 35924 ft 519 kts 43°
2026-05-04 13:39 41.99574 -1.25108 35956 ft 518 kts 49°
2026-05-04 13:39 42.01942 -1.21457 36112 ft 516 kts 49°
2026-05-04 13:40 42.04308 -1.17841 36452 ft 511 kts 49°
2026-05-04 13:40 42.06642 -1.14311 36661 ft 509 kts 48°
2026-05-04 13:40 42.09021 -1.10746 36761 ft 511 kts 48°
2026-05-04 13:41 42.13806 -1.03575 36886 ft 516 kts 48°
2026-05-04 13:41 42.16180 -1.00018 37092 ft 514 kts 48°
2026-05-04 13:41 42.18572 -0.96429 37237 ft 514 kts 48°
2026-05-04 13:42 42.23338 -0.89247 37686 ft 510 kts 48°
2026-05-04 13:42 42.25684 -0.85709 37775 ft 511 kts 48°
2026-05-04 13:42 42.30439 -0.78529 37961 ft 512 kts 48°
2026-05-04 13:43 42.35190 -0.71332 37932 ft 517 kts 48°
2026-05-04 13:43 42.39989 -0.64035 37925 ft 519 kts 49°
2026-05-04 13:44 42.44751 -0.56772 37933 ft 517 kts 49°
2026-05-04 13:44 42.49541 -0.49483 37934 ft 517 kts 49°
2026-05-04 13:45 42.54307 -0.42206 37944 ft 518 kts 49°
2026-05-04 13:45 42.59082 -0.34890 37941 ft 517 kts 49°
2026-05-04 13:46 42.63845 -0.27539 37953 ft 518 kts 49°
2026-05-04 13:46 42.68575 -0.20228 37944 ft 517 kts 49°
2026-05-04 13:47 42.73348 -0.12885 37951 ft 517 kts 49°
2026-05-04 13:47 42.78104 -0.05521 37951 ft 516 kts 49°
2026-05-04 13:48 42.82815 0.01808 37925 ft 516 kts 50°
2026-05-04 13:48 42.87532 0.09179 37951 ft 519 kts 49°
2026-05-04 13:49 42.92293 0.16589 37948 ft 518 kts 50°
2026-05-04 13:49 42.97035 0.24023 37959 ft 518 kts 50°
2026-05-04 13:50 43.01751 0.31435 37933 ft 519 kts 50°
2026-05-04 13:50 43.06455 0.38816 37905 ft 517 kts 50°
2026-05-04 13:51 43.11179 0.46289 37924 ft 518 kts 50°
2026-05-04 13:51 43.15882 0.53725 37941 ft 518 kts 50°
2026-05-04 13:52 43.22977 0.64961 37954 ft 518 kts 50°
2026-05-04 13:53 43.27649 0.72409 37917 ft 516 kts 50°
2026-05-04 13:53 43.32362 0.79911 37910 ft 518 kts 50°
2026-05-04 13:54 43.39390 0.91175 37901 ft 519 kts 50°
2026-05-04 13:55 43.46410 1.02458 37908 ft 518 kts 50°
2026-05-04 13:55 43.53441 1.13770 37897 ft 518 kts 50°
2026-05-04 13:56 43.58092 1.21304 37890 ft 519 kts 50°
2026-05-04 13:57 43.65122 1.32736 37924 ft 517 kts 50°
2026-05-04 13:58 43.74424 1.47894 37883 ft 517 kts 50°
2026-05-04 13:58 43.81379 1.59292 37882 ft 518 kts 51°
2026-05-04 13:59 43.85990 1.66884 37898 ft 516 kts 50°
2026-05-04 14:00 43.92932 1.78347 37897 ft 516 kts 51°
2026-05-04 14:00 43.99336 1.90285 37898 ft 515 kts 56°
2026-05-04 14:01 44.03427 1.98494 37899 ft 514 kts 56°
2026-05-04 14:02 44.09502 2.10735 37925 ft 515 kts 57°
2026-05-04 14:02 44.13562 2.18942 37914 ft 514 kts 57°
2026-05-04 14:03 44.17621 2.27182 37914 ft 514 kts 57°
2026-05-04 14:03 44.21645 2.35383 37932 ft 515 kts 57°
2026-05-04 14:04 44.27728 2.47791 37933 ft 515 kts 57°
2026-05-04 14:04 44.31756 2.56012 37935 ft 516 kts 57°
2026-05-04 14:05 44.37813 2.68462 37914 ft 515 kts 57°
2026-05-04 14:06 44.41851 2.76793 37949 ft 517 kts 57°
2026-05-04 14:06 44.45855 2.85057 37959 ft 515 kts 57°
2026-05-04 14:07 44.49886 2.93411 37968 ft 516 kts 57°
2026-05-04 14:07 44.53880 3.01714 37969 ft 517 kts 57°
2026-05-04 14:08 44.57871 3.10047 37974 ft 517 kts 57°
2026-05-04 14:08 44.61764 3.18567 37973 ft 517 kts 62°
2026-05-04 14:09 44.67062 3.31763 37980 ft 516 kts 62°
2026-05-04 14:10 44.72325 3.44929 37986 ft 515 kts 62°
2026-05-04 14:10 44.75833 3.53729 37985 ft 517 kts 62°
2026-05-04 14:11 44.79335 3.62566 37980 ft 517 kts 62°
2026-05-04 14:11 44.84560 3.75774 37983 ft 516 kts 63°
2026-05-04 14:12 44.88046 3.84644 37978 ft 517 kts 62°
2026-05-04 14:13 44.93270 3.97938 38001 ft 516 kts 62°
2026-05-04 14:13 44.96728 4.06787 37998 ft 516 kts 63°
2026-05-04 14:13 44.98457 4.11243 37847 ft 515 kts 63°
2026-05-04 14:14 45.00179 4.15678 37214 ft 513 kts 63°
2026-05-04 14:14 45.03559 4.24387 35742 ft 507 kts 63°
2026-05-04 14:14 45.05267 4.28780 34797 ft 511 kts 63°
2026-05-04 14:15 45.08685 4.37611 33000 ft 514 kts 63°
2026-05-04 14:15 45.12071 4.46414 31883 ft 497 kts 64°
2026-05-04 14:16 45.15269 4.54760 31202 ft 472 kts 64°
2026-05-04 14:16 45.16830 4.58837 30644 ft 466 kts 64°
2026-05-04 14:17 45.19900 4.66857 29395 ft 457 kts 64°
2026-05-04 14:17 45.21404 4.70799 28748 ft 451 kts 64°
2026-05-04 14:17 45.24343 4.78514 27745 ft 441 kts 64°
2026-05-04 14:18 45.25798 4.82350 27109 ft 437 kts 64°
2026-05-04 14:18 45.27952 4.88044 26206 ft 431 kts 64°
2026-05-04 14:19 45.30187 4.93950 25300 ft 424 kts 65°
2026-05-04 14:19 45.31564 4.97590 24764 ft 421 kts 65°
2026-05-04 14:19 45.32943 5.01242 24399 ft 417 kts 65°
2026-05-04 14:19 45.34311 5.04876 24114 ft 412 kts 64°
2026-05-04 14:20 45.35653 5.08447 23871 ft 408 kts 64°
2026-05-04 14:20 45.36987 5.11999 23641 ft 406 kts 64°
2026-05-04 14:20 45.38315 5.15539 23363 ft 404 kts 65°
2026-05-04 14:21 45.40934 5.22534 22824 ft 401 kts 65°
2026-05-04 14:21 45.42250 5.26051 22558 ft 399 kts 64°
2026-05-04 14:21 45.43555 5.29542 22288 ft 397 kts 65°
2026-05-04 14:21 45.44819 5.32993 22023 ft 395 kts 65°
2026-05-04 14:22 45.46077 5.36478 21765 ft 394 kts 65°
2026-05-04 14:22 45.47330 5.39958 21507 ft 392 kts 65°
2026-05-04 14:22 45.48571 5.43415 21260 ft 391 kts 65°
2026-05-04 14:22 45.49806 5.46860 20997 ft 390 kts 65°
2026-05-04 14:23 45.52252 5.53710 20477 ft 388 kts 62°
2026-05-04 14:23 45.53681 5.56984 20228 ft 388 kts 58°
2026-05-04 14:23 45.55183 5.60193 20044 ft 387 kts 58°
2026-05-04 14:24 45.56674 5.63337 20042 ft 387 kts 58°
2026-05-04 14:24 45.58191 5.66531 20050 ft 387 kts 58°
2026-05-04 14:24 45.59703 5.69716 20064 ft 387 kts 58°
2026-05-04 14:24 45.61217 5.72905 20076 ft 387 kts 58°
2026-05-04 14:25 45.62734 5.76102 20079 ft 387 kts 58°
2026-05-04 14:25 45.65758 5.82455 20083 ft 388 kts 58°
2026-05-04 14:25 45.67283 5.85656 20070 ft 389 kts 58°
2026-05-04 14:26 45.68804 5.88851 19896 ft 388 kts 58°
2026-05-04 14:26 45.70426 5.91956 19556 ft 389 kts 49°
2026-05-04 14:26 45.72345 5.94618 19189 ft 388 kts 42°
2026-05-04 14:26 45.74382 5.97166 18800 ft 386 kts 42°
2026-05-04 14:27 45.76390 5.99721 18411 ft 384 kts 43°
2026-05-04 14:27 45.78383 6.02277 17962 ft 382 kts 43°
2026-05-04 14:27 45.80331 6.04779 17522 ft 379 kts 43°
2026-05-04 14:27 45.82292 6.07302 17086 ft 377 kts 43°
2026-05-04 14:28 45.84245 6.09825 16646 ft 375 kts 43°
2026-05-04 14:28 45.85524 6.11479 16350 ft 372 kts 43°
2026-05-04 14:28 45.88069 6.14774 15781 ft 370 kts 43°
2026-05-04 14:28 45.89977 6.17249 15380 ft 366 kts 43°
2026-05-04 14:29 45.93108 6.21353 14630 ft 364 kts 43°
2026-05-04 14:29 45.96831 6.26197 13819 ft 357 kts 43°
2026-05-04 14:30 45.98651 6.28550 13394 ft 355 kts 43°
2026-05-04 14:30 46.00485 6.30927 12951 ft 351 kts 43°
2026-05-04 14:30 46.04035 6.35557 12081 ft 336 kts 40°
2026-05-04 14:31 46.05914 6.37421 12037 ft 322 kts 29°
2026-05-04 14:31 46.09973 6.40075 12050 ft 319 kts
2026-05-04 14:32 46.14377 6.40198 11657 ft 316 kts 357°
2026-05-04 14:32 46.16580 6.40172 11228 ft 314 kts 358°
2026-05-04 14:32 46.18732 6.40166 10787 ft 312 kts 358°
2026-05-04 14:32 46.20905 6.40166 10350 ft 310 kts 359°
2026-05-04 14:33 46.23062 6.40178 9934 ft 309 kts 359°
2026-05-04 14:33 46.25210 6.40197 9490 ft 307 kts 359°
2026-05-04 14:33 46.27304 6.40215 9113 ft 302 kts 359°
2026-05-04 14:33 46.29354 6.40529 8953 ft 290 kts 16°
2026-05-04 14:34 46.31052 6.41900 8939 ft 271 kts 43°
2026-05-04 14:34 46.32351 6.43777 8948 ft 260 kts 49°
2026-05-04 14:34 46.33647 6.45590 8953 ft 258 kts 50°
2026-05-04 14:34 46.34527 6.47807 8960 ft 254 kts 74°
2026-05-04 14:35 46.35010 6.50228 8971 ft 253 kts 79°
2026-05-04 14:35 46.35406 6.52718 8963 ft 253 kts 81°
2026-05-04 14:35 46.35807 6.55206 8975 ft 253 kts 79°
2026-05-04 14:35 46.36233 6.57672 8967 ft 253 kts 79°
2026-05-04 14:36 46.36662 6.60122 8965 ft 252 kts 79°
2026-05-04 14:36 46.37083 6.62523 8954 ft 236 kts 79°
2026-05-04 14:36 46.37626 6.64697 8941 ft 226 kts 67°
2026-05-04 14:36 46.38332 6.66683 9007 ft 220 kts 65°
2026-05-04 14:37 46.39047 6.68642 8998 ft 221 kts 65°
2026-05-04 14:37 46.39768 6.70618 8974 ft 221 kts 65°
2026-05-04 14:37 46.40486 6.72577 8956 ft 224 kts 64°
2026-05-04 14:37 46.41206 6.74565 8963 ft 221 kts 65°
2026-05-04 14:38 46.42100 6.76321 8935 ft 217 kts 40°
2026-05-04 14:38 46.43478 6.77149 8936 ft 216 kts
2026-05-04 14:38 46.44940 6.76908 8958 ft 214 kts 344°
2026-05-04 14:38 46.46230 6.75941 8951 ft 207 kts 311°
2026-05-04 14:39 46.47087 6.74294 8966 ft 203 kts 296°
2026-05-04 14:39 46.47452 6.72394 8894 ft 190 kts 265°
2026-05-04 14:39 46.47166 6.70596 8495 ft 185 kts 245°
2026-05-04 14:40 46.46231 6.67081 7708 ft 185 kts 246°
2026-05-04 14:40 46.45784 6.65330 7327 ft 184 kts 246°
2026-05-04 14:40 46.45340 6.63598 7020 ft 186 kts 246°
2026-05-04 14:40 46.44889 6.61826 6754 ft 187 kts 246°
2026-05-04 14:41 46.44426 6.60005 6506 ft 200 kts 247°
2026-05-04 14:41 46.43937 6.58070 6229 ft 205 kts 247°
2026-05-04 14:41 46.42962 6.54222 5650 ft 203 kts 248°
2026-05-04 14:42 46.41962 6.50305 5093 ft 211 kts 248°
2026-05-04 14:42 46.41460 6.48331 4806 ft 211 kts 249°
2026-05-04 14:42 46.40952 6.46345 4598 ft 209 kts 249°
2026-05-04 14:43 46.40441 6.44359 4583 ft 214 kts 249°
2026-05-04 14:43 46.39908 6.42289 4605 ft 215 kts 247°
2026-05-04 14:43 46.39388 6.40262 4609 ft 216 kts 247°
2026-05-04 14:43 46.38873 6.38258 4616 ft 215 kts 248°
2026-05-04 14:44 46.38349 6.36207 4619 ft 217 kts 248°
2026-05-04 14:44 46.37825 6.34174 4619 ft 212 kts 248°
2026-05-04 14:44 46.37311 6.32169 4623 ft 212 kts 248°
2026-05-04 14:44 46.36754 6.30194 4619 ft 212 kts 240°
2026-05-04 14:45 46.35832 6.28587 4465 ft 210 kts 224°
2026-05-04 14:45 46.34814 6.27105 4214 ft 202 kts 225°
2026-05-04 14:45 46.33853 6.25688 3988 ft 188 kts 225°
2026-05-04 14:45 46.32961 6.24373 3726 ft 180 kts 225°
2026-05-04 14:46 46.32108 6.23113 3468 ft 175 kts 225°
2026-05-04 14:46 46.31262 6.21867 3224 ft 171 kts 225°
2026-05-04 14:46 46.30477 6.20709 3002 ft 149 kts 225°
2026-05-04 14:46 46.29794 6.19702 2774 ft 135 kts 225°
2026-05-04 14:47 46.29137 6.18733 2583 ft 134 kts 226°
2026-05-04 14:47 46.28493 6.17785 2400 ft 134 kts 226°
2026-05-04 14:47 46.27844 6.16828 2207 ft 132 kts 227°
2026-05-04 14:47 46.27203 6.15883 2021 ft 130 kts 227°
2026-05-04 14:48 46.26572 6.14955 1848 ft 130 kts 228°
2026-05-04 14:48 46.25936 6.14018 1676 ft 130 kts 227°
2026-05-04 14:48 46.25294 6.13074 1481 ft 132 kts 227°
2026-05-04 14:48 46.24660 6.12149 1377 ft 118 kts 226°
2026-05-04 14:49 46.24197 6.11466 1380 ft 73 kts 225°
2026-05-04 14:49 46.23925 6.11071 1383 ft 40 kts 222°
2026-05-04 14:49 46.23738 6.10819 1387 ft 28 kts 214°
2026-05-04 14:49 46.23596 6.10726 1387 ft 12 kts 194°
2026-05-04 14:50 46.23566 6.10717 1387 ft 5 kts 190°
2026-05-04 14:50 46.23561 6.10716 1388 ft 5 kts 190°
2026-05-04 14:51 46.23529 6.10707 1395 ft 3 kts 191°
2026-05-04 14:51 46.23499 6.10701 1394 ft 3 kts 172°
2026-05-04 14:51 46.23484 6.10754 1406 ft 8 kts 81°
2026-05-04 14:51 46.23520 6.10809 1396 ft 3 kts 44°
2026-05-04 14:52 46.23521 6.10811 1396 ft 1 kts 44°
2026-05-04 14:52 46.23526 6.10817 1396 ft 3 kts 44°
2026-05-04 14:53 46.23546 6.10845 1399 ft 5 kts 43°
2026-05-04 14:53 46.23582 6.10896 1396 ft 9 kts 44°
2026-05-04 14:53 46.23638 6.10978 1402 ft 13 kts 46°
2026-05-04 14:53 46.23657 6.11084 1399 ft 11 kts 129°
2026-05-04 14:54 46.23594 6.11165 1400 ft 8 kts 172°
2026-05-04 14:54 46.23541 6.11120 1401 ft 10 kts 229°
2026-05-04 14:54 46.23497 6.11052 1402 ft 11 kts 226°
2026-05-04 14:54 46.23439 6.10965 1402 ft 13 kts 226°
2026-05-04 14:55 46.23378 6.10877 1398 ft 13 kts 225°
2026-05-04 14:55 46.23297 6.10793 1404 ft 16 kts 195°
2026-05-04 14:55 46.23237 6.10758 1405 ft 8 kts 219°
2026-05-04 14:55 46.23198 6.10707 1407 ft 5 kts 225°
2026-05-04 14:56 46.23167 6.10661 1403 ft 8 kts 226°
2026-05-04 14:56 46.23121 6.10593 1404 ft 11 kts 225°
2026-05-04 14:56 46.23064 6.10509 1400 ft 9 kts 226°
2026-05-04 14:56 46.23029 6.10498 1405 ft 6 kts 142°
2026-05-04 14:57 46.23010 6.10525 1401 ft 1 kts 134°
2026-05-04 14:57 46.23009 6.10527 1403 ft 0 kts 134°